SCP
0 0 0 0 0 0 0 0 0 0 0 0 0 0 0 0 0 0 0 0 0 0 0 0 0 0 0 0 0 0 0 0 0 0 0 0 0 0 0 0 0 0 0
0 0 0 0 0 0 0 0 0 0 0 0 0 0 0 0 0 0 0 0 0 0 0 0 0 0 0 0 0 0 0 0 0 0 0 0 0 0 0 0 0 0 0
0 0 0 0 0 0 0 0 0 0 0 0 0 0 0 0 0 0 0 0 0 0 0 0 0 0 0 0 0 0 0 0 0 0 0 0 0 0 0 0 0 0 0
0 0 0 0 0 0 0 0 0 0 0 0 0 0 0 0 0 0 0 0 0 0 0 0 0 0 0 0 0 0 0 0 0 0 0 0 0 0 0 0 0 0 0
0 0 0 0 0 0 0 0 0 0 0 0 0 0 0 0 0 0 0 0 0 0 0 0 0 0 0 0 0 0 0 0 0 0 0 0 0 0 0 0 0 0 0
0 0 0 0 0 0 0 0 0 0 0 0 0 0 0 0 0 0 0 0 0 0 0 0 0 0 0 0 0 0 0 0 0 0 0 0 0 0 0 0 0 0 0
0 0 0 0 0 0 0 0 0 0 0 0 0 0 0 -0 -0 0 0 0 0 0 0 0 0 0 0 0 0 0 0 0 0 0 0 0 0 0 0 0 0 0 0
0 0 0 0 0 0 0 0 0 0 0 0 0 0 0 -0 -0 -0 -0 0 0 0 0 0 0 0 0 0 0 0 0 0 0 0 0 0 0 0 0 0 0 0 0
0 0 0 0 0 0 0 0 0 0 0 0 0 0 0 0 -0 -0 -0 0 0 0 0 0 0 0 0 0 0 0 0 0 0 0 0 0 0 0 0 0 0 0 0
0 0 0 0 0 0 0 0 0 0 0 0 0 0 0 0 0 0 0 0 0 0 0 0 0 0 0 0 0 0 0 0 0 0 0 0 0 0 0 0 0 0 0
0 0 0 0 0 0 0 0 0 0 0 0 0 0 0 0 0 0 0 0 0 0 0 0 0 0 0 0 0 0 0 0 0 0 0 0 0 0 0 0 0 0 0
0 0 0 0 0 0 0 0 0 0 0 0 0 0 0 0 0 0 0 0 0 0 0 0 0 0 0 0 0 0 0 0 0 0 0 0 0 0 0 0 0 0 0
0 0 0 0 0 0 0 0 0 0 0 0 0 0 0 0 0 0 0 0 0 0 0 0 0 0 0 0 0 0 0 0 0 0 0 0 0 0 0 0 0 0 0
0 0 0 0 0 0 0 0 0 0 0 0 0 0 0 0 0 0 0 0 0 0 0 0 0 0 0 0 0 0 0 0 0 0 0 0 0 0 0 0 0 0 0
0 0 0 0 0 0 0 0 0 0 0 0 0 0 0 0 0 0 0 0 0 0 0 0 0 0 0 0 0 0 0 0 0 0 0 0 0 0 0 0 0 0 0
0 0 0 0 0 0 0 0 0 0 0 0 0 0 0 0 0 0 0 0 0 0 0 0 0 0 0 0 0 0 0 0 0 0 0 0 0 0 0 0 0 0 0
0 0 0 0 0 0 0 0 0 0 0 0 0 0 0 0 0 0 0 0 0 0 0 0 0 0 0 0 0 0 0 0 0 0 0 0 0 0 0 0 0 0 0
0 0 0 0 0 0 0 0 0 0 0 0 0 0 0 0 0 0 0 0 0 0 0 0 0 0 0 0 0 0 0 0 0 0 0 0 0 0 0 0 0 0 0
0 0 0 0 0 0 0 0 0 0 0 0 0 0 0 0 0 0 0 0 0 0 0 0 0 0 0 0 0 0 0 0 0 0 0 0 0 0 0 0 0 0 0
0 0 0 0 0 0 0 0 0 0 0 0 0 0 0 0 0 0 0 0 0 0 0 0 0 0 0 0 0 0 0 0 0 0 0 0 0 0 0 0 0 0 0
0 0 0 0 0 0 0 0 0 0 0 0 0 0 0 0 0 0 0 0 0 0 0 0 0 0 0 0 0 0 0 0 0 0 0 0 0 0 0 0 0 0 0
0 0 0 0 0 0 0 0 0 0 0 0 0 0 0 0 0 0 0 0 0 0 0 0 0 0 0 0 0 0 0 0 0 0 0 0 0 0 0 0 0 0 0
0 0 0 0 0 0 0 0 0 0 0 0 0 0 0 0 0 0 0 0 0 0 0 0 0 0 0 0 0 0 0 0 0 0 0 0 0 0 0 0 0 0 0
0 0 0 0 0 0 0 0 0 0 0 0 0 0 0 0 0 0 0 0 0 0 0 0 0 0 0 0 0 0 0 0 0 0 0 0 0 0 0 0 0 0 0
0 0 0 0 0 0 0 0 0 0 0 0 0 0 0 0 0 0 0 0 0 0 0 0 0 0 0 0 0 0 0 0 0 0 0 0 0 0 0 0 0 0 0
0 0 0 0 0 0 0 0 0 0 0 0 0 0 0 0 0 0 0 0 0 0 0 0 0 0 0 0 0 0 0 0 0 0 0 0 0 0 0 0 0 0 0
Wind_Speed
1 1 1 1 1 1 1 1 1 2 2 2 1 2 1 1 1 1 1 4 6 6 7 7 7 8 8 8 8 8 8 8 8 8 9 8 8 8 8 8 8 7 7
1 1 1 1 1 0 0 1 1 2 1 1 1 1 1 1 1 1 1 2 5 6 7 6 6 6 7 7 7 8 8 8 8 8 9 9 8 8 9 9 9 8 8
2 1 1 0 0 0 1 1 2 2 1 1 1 0 0 0 1 1 1 1 2 4 5 5 6 6 6 7 7 7 7 7 7 7 8 8 8 9 9 9 9 8 8
2 2 1 0 0 1 1 1 1 1 1 1 0 1 1 0 0 0 0 0 1 1 2 3 4 4 5 5 6 6 6 6 6 6 6 7 8 9 9 9 9 8 8
2 2 1 1 1 1 1 1 1 1 1 1 0 0 1 0 0 0 0 0 1 1 0 1 2 3 4 4 4 5 5 5 5 5 5 6 7 8 8 9 9 9 9
1 2 1 1 1 1 1 1 1 1 1 0 0 1 1 1 1 0 0 0 1 1 1 0 1 2 3 4 4 4 4 5 5 5 5 6 6 6 6 7 7 8 8
2 2 1 1 1 1 1 2 2 1 1 1 1 1 2 1 1 1 0 0 1 1 1 1 1 1 1 2 3 4 4 4 4 5 6 5 5 6 6 6 7 7 7
2 2 2 1 1 1 1 1 2 1 1 1 1 1 1 2 2 2 1 1 0 0 0 1 1 1 1 1 1 3 4 4 5 5 5 5 4 4 5 6 7 7 8
2 2 2 2 2 2 2 2 2 2 1 1 1 2 1 1 1 1 1 1 1 0 0 0 1 1 2 1 1 2 3 3 4 4 4 4 4 4 4 5 7 8 8
1 2 2 2 2 2 2 2 2 2 2 1 0 1 1 2 1 1 1 1 0 0 1 1 1 1 2 1 2 2 3 3 3 3 2 2 2 2 3 4 5 5 6
1 1 2 2 2 2 2 1 2 2 2 2 1 1 1 0 1 1 1 1 1 1 1 1 1 1 1 2 2 2 2 2 2 1 1 1 2 2 2 2 2 2 2
0 1 2 2 2 2 2 2 2 2 2 2 1 1 1 1 2 2 2 1 1 1 1 1 1 1 1 1 2 2 2 1 1 1 1 1 0 1 1 2 2 1 1
1 1 2 2 2 2 2 2 2 2 2 2 2 1 1 1 1 2 2 1 1 1 1 1 1 1 1 1 1 2 2 2 1 1 1 1 1 1 1 1 0 1 1
2 2 2 2 2 2 2 2 2 1 1 2 2 2 1 1 1 2 2 2 1 1 1 2 1 1 1 1 1 2 1 2 2 1 0 2 2 1 1 1 0 0 1
2 2 2 2 2 2 2 2 1 1 1 1 1 1 1 1 1 1 1 2 3 2 2 2 1 2 1 1 1 2 2 2 2 2 1 2 2 2 1 1 0 0 1
2 2 2 2 2 2 2 2 1 1 1 1 1 1 0 1 0 1 1 1 1 2 2 2 2 1 1 1 1 2 2 2 3 3 2 2 3 2 1 1 1 1 1
2 2 2 2 2 2 2 2 2 1 2 1 0 1 1 0 0 0 0 1 1 1 2 2 1 1 1 1 1 1 2 2 2 3 3 3 3 3 2 2 1 1 1
2 2 2 2 2 2 2 2 2 2 2 2 1 1 1 0 1 0 0 1 1 1 2 2 1 1 1 1 1 1 1 1 2 2 3 3 3 3 3 3 2 2 2
2 2 3 3 3 2 2 2 2 2 2 3 2 2 2 1 1 1 1 1 1 1 1 1 1 1 1 1 0 1 1 1 1 2 3 3 3 3 3 4 3 3 3
3 3 3 3 3 3 3 2 2 2 2 2 3 3 3 3 3 3 2 2 2 1 1 1 1 1 1 1 0 1 1 1 1 2 2 2 2 3 3 4 4 4 4
3 3 3 3 3 3 3 3 3 3 2 2 2 3 3 4 4 4 3 3 3 2 1 1 1 1 1 1 2 1 2 1 2 1 1 1 1 2 2 3 4 4 4
3 3 3 3 3 3 3 4 3 3 3 3 3 3 3 4 4 5 5 4 5 4 4 3 3 3 3 3 2 2 2 1 2 1 1 2 1 2 2 2 3 4 4
2 2 3 3 3 3 4 3 3 3 2 2 2 2 2 2 2 2 3 4 4 6 6 5 5 5 4 4 3 3 3 3 3 2 2 2 2 3 3 2 3 4 4
2 3 3 3 3 3 4 4 3 2 2 2 3 3 3 3 2 2 2 3 3 4 5 5 5 5 5 4 4 4 3 2 2 1 2 2 2 3 3 2 3 3 3
2 2 2 2 3 3 3 4 3 2 2 3 3 3 3 3 3 3 2 2 3 4 4 5 5 4 3 4 4 2 2 2 2 2 2 2 2 2 2 2 2 3 4
2 1 1 2 2 3 3 4 3 2 2 2 2 2 3 4 3 3 3 3 4 4 3 2 2 2 2 3 5 4 4 3 2 3 3 3 2 1 2 2 2 2 2
Wind_Direction
106 63 38 35 21 25 34 34 56 87 98 99 119 131 150 174 202 219 230 209 201 203 209 209 206 206 206 205 202 198 196 199 202 200 202 206 209 207 207 208 207 207 210
150 139 86 35 2 16 36 63 73 80 84 91 83 108 156 168 188 210 232 226 214 213 217 211 209 207 207 208 205 203 202 205 207 208 208 209 211 213 212 212 212 212 212
161 156 142 167 287 41 61 65 66 79 89 81 69 58 109 143 174 219 234 233 225 223 222 215 212 208 208 208 207 204 206 208 209 210 213 214 216 218 220 217 216 218 216
167 156 152 185 222 75 83 93 78 78 71 75 55 12 36 37 6 244 215 213 220 231 223 206 207 213 214 211 207 210 214 215 213 214 214 215 218 220 220 219 218 219 220
173 158 164 172 137 105 95 126 94 113 105 88 94 33 25 42 20 4 50 176 158 157 201 211 215 217 215 211 205 211 214 212 209 215 219 218 220 221 220 220 221 220 220
158 153 153 157 140 122 107 108 118 108 121 131 89 41 26 26 42 22 229 137 140 166 169 207 244 237 221 214 205 210 211 211 216 223 231 228 227 224 221 217 217 219 218
159 139 141 132 141 147 158 146 136 117 65 71 78 39 16 27 27 357 29 91 161 178 143 177 212 217 229 210 207 207 213 220 225 230 235 237 241 234 224 220 220 219 220
173 166 156 159 145 129 117 131 141 130 87 80 108 91 12 1 4 11 32 60 54 116 164 201 184 180 193 207 215 215 221 224 231 234 233 232 239 234 225 227 225 225 227
171 162 155 148 142 145 160 169 149 142 141 86 88 128 138 237 316 351 14 24 44 53 305 234 205 202 203 204 224 239 237 241 245 247 240 236 233 233 234 236 236 234 237
143 153 156 151 154 149 158 171 146 144 146 166 145 108 154 163 173 313 344 356 8 330 284 267 246 223 214 214 224 233 243 247 243 245 241 226 222 228 239 246 247 245 243
141 162 162 162 164 164 170 162 151 152 157 165 166 149 135 120 159 168 263 310 347 333 312 291 263 243 225 225 231 231 226 225 216 221 256 242 225 226 236 250 250 252 254
245 179 165 175 179 176 181 183 176 165 166 162 159 146 161 174 186 178 208 251 280 302 313 303 266 254 243 234 242 219 191 182 170 151 35 6 207 212 213 228 240 242 245
227 230 183 184 188 192 183 166 160 174 173 176 184 187 183 199 186 174 182 212 254 305 318 291 255 244 246 239 244 211 182 165 136 92 54 76 156 176 178 180 227 269 281
219 211 183 183 183 174 169 155 157 189 177 187 195 185 182 210 184 186 183 174 192 291 308 284 286 249 252 240 239 215 199 169 159 149 113 145 148 148 150 152 203 294 319
210 189 172 170 174 166 162 153 158 186 159 173 187 183 195 225 208 210 194 192 183 208 252 261 264 268 254 230 221 206 213 194 178 176 185 159 158 168 178 165 207 256 296
207 183 181 177 173 165 158 151 160 174 146 182 180 147 207 252 222 183 192 198 198 198 228 242 241 265 269 257 214 218 226 217 204 191 201 201 189 195 198 195 213 243 267
191 186 184 178 179 180 175 164 182 170 167 200 215 171 242 235 135 194 147 144 168 181 218 262 255 275 256 278 286 241 233 238 241 218 219 222 212 211 209 206 214 228 237
197 193 185 183 194 192 187 184 200 191 188 207 225 205 240 184 173 204 161 181 200 197 193 241 266 270 259 262 274 261 269 252 251 236 226 225 221 218 219 220 223 227 234
199 194 186 193 200 201 201 206 201 204 210 218 220 215 229 197 215 221 205 208 224 215 193 198 254 264 277 295 301 281 293 291 268 257 232 230 232 228 228 226 227 233 235
197 197 197 202 206 208 205 210 204 210 220 228 229 228 229 218 222 221 217 213 204 185 176 196 235 279 269 278 221 259 290 285 276 286 280 255 243 233 234 233 235 235 231
199 194 191 197 208 208 215 211 208 214 222 240 249 245 241 234 231 223 223 212 198 196 198 209 233 245 251 238 229 225 241 263 258 259 267 261 250 244 245 244 238 236 229
197 187 189 192 211 226 222 213 204 213 220 231 253 265 259 247 248 239 235 220 200 199 210 214 226 230 233 229 231 222 211 218 259 239 228 258 238 253 256 246 246 232 224
193 196 202 197 215 229 229 224 217 208 221 241 254 265 275 273 251 248 250 240 229 223 213 211 225 233 228 218 207 221 218 218 235 227 202 250 242 253 262 258 250 234 226
208 219 217 215 227 243 234 229 218 207 217 235 245 245 252 268 260 245 251 257 255 247 234 223 228 236 236 221 209 213 222 234 259 226 197 240 244 249 262 262 250 229 219
223 224 219 217 228 248 238 224 206 206 229 249 252 252 246 249 255 228 217 253 274 273 259 242 234 237 225 208 195 181 192 215 256 244 203 223 242 248 256 256 251 227 220
219 216 236 232 232 247 239 220 204 205 237 261 274 270 254 247 246 217 210 226 258 272 278 277 272 271 244 210 193 198 201 212 238 250 205 204 223 221 263 251 251 239 225